Hourly Data Report for April 03, 2017

All times are specified in Local Standard Time (LST). Add 1 hour to adjust for Daylight Saving Time where and when it is observed.

TORONTO CITY
ONTARIO

43°40'00.000" N
79°24'00.000" W
112.50 m
6158355
71508
XTO

Download Data

Hourly Data (April 2017)
Hourly Data Report for April 3, 2017
TIME Temp Definition
°C
Dew Point Definition
°C
Rel Hum Definition
%
Wind Dir Definition
10's deg

Wind Spd Definition
km/h
Visibility Definition
km
Stn Press Definition
kPa
Hmdx Definition


Wind Chill Definition


Weather Definition


00:00 10.2 -0.3 48 LegendMM LegendMM   100.42     LegendNANA
01:00 9.6 0.0 51 LegendMM LegendMM   100.38     LegendNANA
02:00 9.4 -1.8 46 LegendMM LegendMM   100.29     LegendNANA
03:00 9.1 -1.5 47 LegendMM LegendMM   100.23     LegendNANA
04:00 8.6 -1.8 48 LegendMM LegendMM   100.27     LegendNANA
05:00 8.4 0.0 55 LegendMM LegendMM   100.31     LegendNANA
06:00 8.6 0.0 55 LegendMM LegendMM   100.32     LegendNANA
07:00 8.6 -0.5 53 LegendMM LegendMM   100.40     LegendNANA
08:00 8.5 -0.8 52 LegendMM LegendMM   100.29     LegendNANA
09:00 6.3 0.1 65 LegendMM LegendMM   100.22     LegendNANA
10:00 7.3 0.0 60 LegendMM LegendMM   100.12     LegendNANA
11:00 9.4 1.1 56 LegendMM LegendMM   100.03     LegendNANA
12:00 8.4 0.7 58 LegendMM LegendMM   99.93     LegendNANA
13:00 7.9 1.4 64 LegendMM LegendMM   99.80     LegendNANA
14:00 8.6 1.2 60 LegendMM LegendMM   99.66     LegendNANA
15:00 9.8 1.3 56 LegendMM LegendMM   99.52     LegendNANA
16:00 9.8 0.9 54 LegendMM LegendMM   99.39     LegendNANA
17:00 9.8 1.1 55 LegendMM LegendMM   99.26     LegendNANA
18:00 10.0 0.9 53 LegendMM LegendMM   99.17     LegendNANA
19:00 10.6 0.3 49 LegendMM LegendMM   99.03     LegendNANA
20:00 10.7 -0.5 46 LegendMM LegendMM   98.99     LegendNANA
21:00 9.2 0.0 53 LegendMM LegendMM   98.94     LegendNANA
22:00 5.5 1.5 76 LegendMM LegendMM   98.88     LegendNANA
23:00 5.4 2.6 82 LegendMM LegendMM   98.69     LegendNANA

Notes on Data Quality.

Legend

  • E = Estimated
  • M = Missing
  • NA = Not Available
Date modified: